SCP
0 -0 -0 -0 0 -0 0 -0 -0 -0 0 -0 -0 0 0 -0 -0 -0 -0 -0 0 0 0 0 0 0 0 0 0 0 0 0
-0 -0 -0 0 0 0 0 -0 -0 -0 -0 -0 0 0 -0 -0 -0 0 0 0 0 0 0 0 0 0 0 0 0 0 0 0
-0 -0 0 0 0 0 -0 0 0 -0 -0 -0 -0 -0 -0 -0 0 0 0 0 0 0 0 0 0 0 0 0 0 0 0 -0
-0 -0 -0 0 -0 0 0 0 0 0 0 -0 -0 0 0 -0 0 0 0 0 0 0 0 0 0 0 0 0 0 0 -0 -0
-0 -0 0 0 -0 0 0 0 0 0 0 -0 -0 -0 0 -0 -0 0 0 0 0 0 0 0 0 0 0 0 -0 -0 -0 -0
-0 -0 -0 -0 -0 0 -0 0 0 0 -0 -0 -0 -0 -0 -0 0 0 0 0 0 0 0 0 0 0 -0 -0 -0 -0 -0 -0
-0 -0 -0 -0 0 0 0 0 -0 -0 -0 -0 -0 -0 -0 -0 0 0 0 0 -0 -0 -0 -0 -0 -0 -0 -0 -0 -0 -0 -0
-0 -0 -0 -0 -0 -0 0 -0 -0 0 -0 -0 -0 -0 -0 -0 0 0 0 0 0 -0 -0 -0 -0 -0 -0 -0 -0 -0 -0 -0
-0 -0 -0 -0 -0 0 -0 0 0 0 -0 -0 0 -0 0 0 0 0 0 0 0 0 -0 -0 -0 -0 -0 -0 -0 -0 -0 0
-0 -0 -0 0 0 0 0 -0 -0 -0 -0 -0 0 0 0 0 0 0 0 0 0 0 0 -0 -0 -0 -0 0 0 0 0 0
-0 -0 -0 -0 0 0 0 -0 0 -0 -0 -0 0 0 0 -0 0 0 0 0 0 0 -0 0 0 -0 0 0 0 0 0 0
-0 -0 -0 -0 -0 -0 0 0 -0 -0 -0 -0 -0 0 0 0 0 -0 -0 -0 -0 -0 -0 0 0 0 0 0 0 0 0 0
-0 -0 -0 -0 -0 -0 -0 -0 -0 -0 -0 -0 -0 -0 0 0 -0 -0 -0 -0 -0 -0 -0 0 0 0 0 0 0 0 0 0
-0 -0 -0 -0 0 -0 0 -0 -0 -0 -0 -0 -0 -0 -0 -0 -0 -0 -0 -0 -0 -0 -0 -0 0 0 0 0 0 0 0 0
0 -0 -0 -0 -0 -0 0 -0 -0 -0 -0 -0 -0 -0 -0 -0 -0 -0 -0 -0 -1 -1 -0 -0 -0 0 0 0 0 0 0 0
0 -0 -0 -0 -0 0 0 -0 -0 -0 -0 -0 -0 -0 -0 -0 -0 -0 -0 -1 -1 -1 -1 -0 0 0 0 0 0 0 0 0
0 0 0 0 -0 0 0 0 -0 -0 -0 -0 -0 0 -0 -0 0 0 -0 -1 -1 -1 -0 -0 0 0 0 0 0 0 0 0
0 0 0 0 -0 -0 0 -0 -0 0 -0 -0 -0 0 0 0 0 0 -0 -0 -0 -0 -0 0 0 0 0 0 0 0 0 0
0 0 0 0 0 -0 0 0 0 0 -0 -0 -1 -0 0 0 0 0 0 1 -0 -0 -0 0 0 0 0 0 0 0 0 0
0 0 0 0 0 0 0 0 0 0 -0 -0 -1 -0 0 0 1 1 1 2 1 0 0 0 0 0 0 0 0 0 0 0
Wind_Speed_500mb
3 5 6 8 16 26 24 9 7 9 12 5 5 19 32 37 41 38 32 30 26 22 18 17 18 21 24 28 31 32 33 33
3 10 6 3 25 23 20 13 12 16 14 9 8 30 28 42 41 37 35 31 27 24 23 22 22 24 29 32 35 36 36 36
6 2 2 6 16 7 12 10 12 7 8 11 27 19 35 41 39 36 36 34 30 28 26 25 25 28 31 34 35 37 37 37
2 4 3 5 7 12 10 11 16 19 19 12 17 26 42 39 37 34 33 35 33 30 28 27 27 28 31 33 35 35 35 32
5 5 8 10 9 13 16 21 21 25 13 12 30 40 41 39 37 37 37 37 35 33 31 30 28 27 28 30 31 29 26 24
5 11 8 15 10 16 26 14 31 21 10 18 41 46 43 41 41 40 39 37 35 33 31 29 27 26 26 25 24 22 18 16
8 14 10 20 12 17 8 31 10 12 14 32 52 50 46 43 41 40 38 36 34 32 29 27 26 24 24 21 19 17 15 11
5 13 18 31 28 23 17 27 12 12 30 49 52 51 49 47 44 42 39 37 35 33 31 28 26 23 21 17 16 13 9 6
6 19 16 26 22 10 33 20 18 29 49 54 54 50 45 43 41 40 39 38 34 32 32 28 25 22 19 16 13 9 6 3
5 10 18 23 22 13 16 10 16 32 56 56 53 50 47 43 42 41 40 38 33 30 29 25 22 20 18 16 12 10 7 4
11 19 16 18 12 7 21 10 21 48 56 53 49 46 44 41 39 39 39 37 33 29 26 22 20 17 17 17 16 15 13 12
10 18 14 11 6 4 20 14 31 56 55 52 50 48 46 43 43 40 37 35 33 29 26 25 24 16 13 16 14 12 12 10
12 7 7 7 7 13 11 23 40 48 50 54 54 50 46 44 43 40 37 37 34 32 31 29 28 20 12 13 12 10 8 5
5 9 4 10 21 13 18 30 39 45 44 46 47 51 46 42 38 37 40 42 42 39 37 34 28 22 16 13 13 10 6 4
8 12 8 16 20 0 19 27 35 40 41 42 42 51 50 46 44 44 43 47 52 47 41 36 30 25 20 17 14 9 7 5
8 16 12 13 27 9 17 29 37 37 39 40 43 49 50 48 48 52 53 54 53 53 46 41 30 23 24 23 19 11 10 10
9 11 19 36 38 24 18 25 35 41 38 39 41 43 49 49 47 49 51 58 57 55 47 39 36 31 28 26 20 18 20 22
7 2 20 17 38 23 26 33 46 44 45 44 40 46 49 47 47 47 46 52 55 51 43 40 36 32 30 28 27 25 25 27
10 8 10 2 21 27 21 33 28 45 49 50 55 52 54 53 51 47 49 52 52 48 45 40 37 34 32 32 30 33 33 29
22 17 7 17 9 11 16 22 38 44 53 59 60 57 58 63 62 59 53 50 46 42 37 37 36 34 26 25 33 36 33 29
Wind_Direction_500mb
94 90 84 100 131 116 117 80 123 111 67 59 74 137 137 151 152 155 160 161 155 154 148 133 121 113 109 105 103 101 99 97
94 95 107 113 149 132 119 98 83 109 81 71 105 133 140 151 150 156 159 158 155 149 142 133 122 113 106 102 101 101 100 98
77 71 33 101 151 145 117 100 115 114 110 90 143 145 152 154 154 160 158 155 150 142 135 127 119 111 106 102 101 100 98 96
250 148 88 134 155 137 91 120 124 104 112 136 170 152 152 154 154 155 152 145 141 138 133 126 120 115 110 108 107 107 104 102
153 126 169 144 155 167 137 132 112 126 123 150 161 158 156 154 154 153 149 144 142 140 137 133 130 124 119 118 113 111 111 105
199 180 169 148 136 141 139 98 130 131 143 157 163 160 158 157 156 153 151 148 147 144 141 137 132 129 123 120 122 118 113 107
185 174 153 160 137 150 117 135 122 166 141 161 158 159 162 162 162 159 156 153 151 149 147 145 140 136 134 133 133 122 114 112
193 196 181 164 149 148 140 146 135 153 153 162 163 164 166 167 166 163 162 160 155 153 149 144 143 138 139 139 141 132 125 106
212 196 174 156 137 145 151 185 191 180 163 169 169 172 175 174 171 167 163 161 154 155 158 154 149 150 152 158 161 156 141 90
124 161 154 157 137 160 176 204 192 174 172 170 174 176 177 176 175 173 171 164 164 161 162 164 164 173 181 188 197 207 221 274
91 125 100 128 139 141 184 167 188 170 177 176 178 180 180 181 179 180 178 176 175 175 177 182 190 198 209 216 224 234 243 263
81 103 85 143 121 172 192 188 169 177 182 184 186 184 185 187 184 185 182 184 188 193 198 209 217 217 221 218 228 244 249 259
62 99 98 123 209 219 158 181 178 186 186 191 193 193 192 192 193 194 193 193 197 203 212 221 223 228 233 225 224 226 231 245
122 153 97 201 232 203 173 174 181 191 197 199 203 203 207 208 207 205 208 208 207 210 218 224 226 235 240 231 217 212 217 294
144 179 147 209 242 137 190 187 188 195 198 203 209 215 218 220 225 223 222 216 217 219 219 222 226 227 232 227 221 223 264 251
215 184 207 219 237 167 194 207 204 201 202 206 211 218 225 227 231 236 235 225 223 219 217 217 224 243 228 220 218 230 200 159
207 180 197 224 244 222 216 219 218 209 208 211 214 218 223 224 229 233 229 224 219 216 212 218 230 231 224 212 195 179 164 148
293 116 212 235 251 252 232 230 221 218 214 213 211 216 217 218 221 223 223 215 211 213 218 232 238 238 225 201 179 166 155 143
239 104 182 97 264 248 227 219 222 223 223 218 214 213 214 213 213 213 214 210 212 219 226 238 245 224 203 187 174 165 157 150
174 175 208 193 259 235 233 225 221 224 220 220 216 216 218 213 213 214 210 209 216 223 231 244 235 233 219 214 186 174 163 155
Wind_Speed_850mb
3 5 6 8 16 26 24 9 7 9 12 5 5 19 32 37 41 38 32 30 26 22 18 17 18 21 24 28 31 32 33 33
3 10 6 3 25 23 20 13 12 16 14 9 8 30 28 42 41 37 35 31 27 24 23 22 22 24 29 32 35 36 36 36
6 2 2 6 16 7 12 10 12 7 8 11 27 19 35 41 39 36 36 34 30 28 26 25 25 28 31 34 35 37 37 37
2 4 3 5 7 12 10 11 16 19 19 12 17 26 42 39 37 34 33 35 33 30 28 27 27 28 31 33 35 35 35 32
5 5 8 10 9 13 16 21 21 25 13 12 30 40 41 39 37 37 37 37 35 33 31 30 28 27 28 30 31 29 26 24
5 11 8 15 10 16 26 14 31 21 10 18 41 46 43 41 41 40 39 37 35 33 31 29 27 26 26 25 24 22 18 16
8 14 10 20 12 17 8 31 10 12 14 32 52 50 46 43 41 40 38 36 34 32 29 27 26 24 24 21 19 17 15 11
5 13 18 31 28 23 17 27 12 12 30 49 52 51 49 47 44 42 39 37 35 33 31 28 26 23 21 17 16 13 9 6
6 19 16 26 22 10 33 20 18 29 49 54 54 50 45 43 41 40 39 38 34 32 32 28 25 22 19 16 13 9 6 3
5 10 18 23 22 13 16 10 16 32 56 56 53 50 47 43 42 41 40 38 33 30 29 25 22 20 18 16 12 10 7 4
11 19 16 18 12 7 21 10 21 48 56 53 49 46 44 41 39 39 39 37 33 29 26 22 20 17 17 17 16 15 13 12
10 18 14 11 6 4 20 14 31 56 55 52 50 48 46 43 43 40 37 35 33 29 26 25 24 16 13 16 14 12 12 10
12 7 7 7 7 13 11 23 40 48 50 54 54 50 46 44 43 40 37 37 34 32 31 29 28 20 12 13 12 10 8 5
5 9 4 10 21 13 18 30 39 45 44 46 47 51 46 42 38 37 40 42 42 39 37 34 28 22 16 13 13 10 6 4
8 12 8 16 20 0 19 27 35 40 41 42 42 51 50 46 44 44 43 47 52 47 41 36 30 25 20 17 14 9 7 5
8 16 12 13 27 9 17 29 37 37 39 40 43 49 50 48 48 52 53 54 53 53 46 41 30 23 24 23 19 11 10 10
9 11 19 36 38 24 18 25 35 41 38 39 41 43 49 49 47 49 51 58 57 55 47 39 36 31 28 26 20 18 20 22
7 2 20 17 38 23 26 33 46 44 45 44 40 46 49 47 47 47 46 52 55 51 43 40 36 32 30 28 27 25 25 27
10 8 10 2 21 27 21 33 28 45 49 50 55 52 54 53 51 47 49 52 52 48 45 40 37 34 32 32 30 33 33 29
22 17 7 17 9 11 16 22 38 44 53 59 60 57 58 63 62 59 53 50 46 42 37 37 36 34 26 25 33 36 33 29
Wind_Direction_850mb
94 90 84 100 131 116 117 80 123 111 67 59 74 137 137 151 152 155 160 161 155 154 148 133 121 113 109 105 103 101 99 97
94 95 107 113 149 132 119 98 83 109 81 71 105 133 140 151 150 156 159 158 155 149 142 133 122 113 106 102 101 101 100 98
77 71 33 101 151 145 117 100 115 114 110 90 143 145 152 154 154 160 158 155 150 142 135 127 119 111 106 102 101 100 98 96
250 148 88 134 155 137 91 120 124 104 112 136 170 152 152 154 154 155 152 145 141 138 133 126 120 115 110 108 107 107 104 102
153 126 169 144 155 167 137 132 112 126 123 150 161 158 156 154 154 153 149 144 142 140 137 133 130 124 119 118 113 111 111 105
199 180 169 148 136 141 139 98 130 131 143 157 163 160 158 157 156 153 151 148 147 144 141 137 132 129 123 120 122 118 113 107
185 174 153 160 137 150 117 135 122 166 141 161 158 159 162 162 162 159 156 153 151 149 147 145 140 136 134 133 133 122 114 112
193 196 181 164 149 148 140 146 135 153 153 162 163 164 166 167 166 163 162 160 155 153 149 144 143 138 139 139 141 132 125 106
212 196 174 156 137 145 151 185 191 180 163 169 169 172 175 174 171 167 163 161 154 155 158 154 149 150 152 158 161 156 141 90
124 161 154 157 137 160 176 204 192 174 172 170 174 176 177 176 175 173 171 164 164 161 162 164 164 173 181 188 197 207 221 274
91 125 100 128 139 141 184 167 188 170 177 176 178 180 180 181 179 180 178 176 175 175 177 182 190 198 209 216 224 234 243 263
81 103 85 143 121 172 192 188 169 177 182 184 186 184 185 187 184 185 182 184 188 193 198 209 217 217 221 218 228 244 249 259
62 99 98 123 209 219 158 181 178 186 186 191 193 193 192 192 193 194 193 193 197 203 212 221 223 228 233 225 224 226 231 245
122 153 97 201 232 203 173 174 181 191 197 199 203 203 207 208 207 205 208 208 207 210 218 224 226 235 240 231 217 212 217 294
144 179 147 209 242 137 190 187 188 195 198 203 209 215 218 220 225 223 222 216 217 219 219 222 226 227 232 227 221 223 264 251
215 184 207 219 237 167 194 207 204 201 202 206 211 218 225 227 231 236 235 225 223 219 217 217 224 243 228 220 218 230 200 159
207 180 197 224 244 222 216 219 218 209 208 211 214 218 223 224 229 233 229 224 219 216 212 218 230 231 224 212 195 179 164 148
293 116 212 235 251 252 232 230 221 218 214 213 211 216 217 218 221 223 223 215 211 213 218 232 238 238 225 201 179 166 155 143
239 104 182 97 264 248 227 219 222 223 223 218 214 213 214 213 213 213 214 210 212 219 226 238 245 224 203 187 174 165 157 150
174 175 208 193 259 235 233 225 221 224 220 220 216 216 218 213 213 214 210 209 216 223 231 244 235 233 219 214 186 174 163 155